Find Venmus

NORAD ID: 42901 Int'l Des: 2017-044 Owner: ISA/CNES Country: IL operational
LEOCIRCULARRETROGRADESSO

リアルタイム位置

3D地球を読み込み中...

Venmusについて

説明を読み込み中...

次回通過

Passes for default location (London). Set your location on the main map for personalized predictions.

高度履歴

Loading altitude history...

軌道要素

1 42901U 17044B 26104.85866396 .00001822 00000-0 10376-3 0 9999
2 42901 97.2787 144.2598 0002717 190.7678 169.3496 15.14001807471373
Epoch: Apr 14, 2026 • Age: 4 hours

現在のステータス

高度 552.1 km
速度 7.58 km/s
衛星直下点 -82.66°S, 6.91°E
打ち上げ日 Aug 2, 2017
運用期間 8.7 years
タイプ other

技術仕様

分類 Payload
質量 264.00 kg
乾燥質量 250.00 kg
総質量 264.00 kg
長さ 1.70 m
直径 1.20 m
スパン 4.50 m
形状 Box + 2 pan
製造者 IAI
バスタイプ Venms
フェーズステータス In Orbit
所有者/国 ISA/CNES/IL

Most Searched